Lamar, CO

7:04 PM MST on November 16, 2019 (GMT -0700)
Lamar Municipal

Weather History for KLAA - August, 2019

Change the Weather History Date:

Sunday, August 25, 2019

  Actual Average Record
Temperature  
Mean Temperature 79 °F 74 °F  
Max Temperature 100 °F 89 °F 106 °F (1936)
Min Temperature 57 °F 59 °F 44 °F (1992)
Degree Days  
Heating Degree Days 0 0  
Month to date heating degree days 0 0  
Since 1 June heating degree days 16 22  
Since 1 July heating degree days 0 2  
Cooling Degree Days 14 9  
Month to date cooling degree days 367 276  
Year to date cooling degree days 1041 940  
Since 1 June cooling degree days 1019 880  
Growing Degree Days 28 (Base 50)    
Moisture  
Dew Point 54 °F    
Average Humidity 58    
Maximum Humidity 100    
Minimum Humidity 15    
Precipitation  
Precipitation 0.00 in 0.05 in 0.92 in (1992)
Month to date precipitation 0.73 1.96  
Year to date precipitation 7.23 12.05  
Sea Level Pressure  
Sea Level Pressure 29.69 in    
Wind  
Wind Speed 9 mph (WSW)    
Max Wind Speed 22 mph    
Max Gust Speed 29 mph    
Visibility 10 miles    
Events      
T = Trace of Precipitation, MM = Missing Value Source: NWS Daily Summary

Daily Weather History Graph

Daily Weather History Graph

Search for Another Location

Airport or City:

Astronomy

Aug. 25, 2019 Rise Set
Actual Time 6:14 AM MDT 7:30 PM MDT
Civil Twilight 5:46 AM MDT 7:58 PM MDT
Nautical Twilight 5:14 AM MDT 8:30 PM MDT
Astronomical Twilight 4:39 AM MDT 9:04 PM MDT
Moon 12:53 AM MDT (8/25) 3:50 PM MDT (8/25)
Length of Visible Light 14h 11m
Length of Day
13h 16m
Waning Crescent, 28% of the Moon is Illuminated
Aug 25
Waning Crescent
Aug 30
New
Sep 5
First Quarter
Sep 13
Full
Sep 21
Last Quarter

Hourly Weather History & Observations

Time (MDT) Temp. Heat Index Dew Point Humidity Pressure Visibility Wind Dir Wind Speed Gust Speed Precip Events Conditions
12:53 AM 69.1 °F - 64.0 °F 84% 29.76 in 10.0 mi Calm Calm - N/A   Clear
1:53 AM 64.0 °F - 62.1 °F 93% 29.76 in 10.0 mi Calm Calm - N/A   Clear
2:53 AM 61.0 °F - 60.1 °F 97% 29.75 in 10.0 mi Calm Calm - N/A   Clear
3:53 AM 62.1 °F - 59.0 °F 90% 29.75 in 10.0 mi WSW 5.8 mph - N/A   Clear
4:53 AM 61.0 °F - 59.0 °F 93% 29.75 in 10.0 mi SW 6.9 mph - N/A   Clear
5:53 AM 57.9 °F - 57.0 °F 97% 29.76 in 10.0 mi West 3.5 mph - N/A   Clear
6:53 AM 59.0 °F - 55.9 °F 90% 29.78 in 10.0 mi West 4.6 mph - N/A   Clear
7:53 AM 68.0 °F - 53.1 °F 59% 29.77 in 10.0 mi West 10.4 mph - N/A   Clear
8:53 AM 73.0 °F - 52.0 °F 48% 29.76 in 10.0 mi West 8.1 mph - N/A   Clear
9:53 AM 81.0 °F - 52.0 °F 36% 29.75 in 10.0 mi WNW 11.5 mph - N/A   Clear
10:53 AM 87.1 °F - 52.0 °F 30% 29.74 in 10.0 mi NW 9.2 mph - N/A   Clear
11:53 AM 93.0 °F - 46.9 °F 20% 29.70 in 10.0 mi WNW 10.4 mph - N/A   Clear
12:53 PM 97.0 °F - 48.9 °F 19% 29.68 in 10.0 mi West 9.2 mph - N/A   Clear
1:53 PM 99.0 °F - 48.0 °F 18% 29.67 in 10.0 mi NNE 9.2 mph - N/A   Clear
2:53 PM 99.0 °F - 43.0 °F 15% 29.65 in 10.0 mi NE 8.1 mph - N/A   Clear
3:53 PM 100.0 °F - 45.0 °F 15% 29.62 in 10.0 mi ENE 10.4 mph - N/A   Clear
4:53 PM 99.0 °F - 42.1 °F 14% 29.61 in 10.0 mi North - - N/A   Clear
5:53 PM 98.1 °F - 44.1 °F 16% 29.61 in 10.0 mi East 10.4 mph - N/A   Clear
7:53 PM 86.0 °F - 48.9 °F 28% 29.60 in 10.0 mi SSE 12.7 mph - N/A   Clear
8:53 PM 82.0 °F 81.7 °F 57.0 °F 42% 29.61 in 10.0 mi SSE 12.7 mph - N/A   Clear
9:53 PM 82.9 °F 83.2 °F 60.1 °F 46% 29.60 in 10.0 mi South 18.4 mph 28.8 mph N/A   Clear
10:53 PM 80.1 °F 81.1 °F 61.0 °F 52% 29.60 in 10.0 mi South 16.1 mph - N/A   Clear
11:53 PM 80.1 °F 81.1 °F 61.0 °F 52% 29.57 in 10.0 mi South 16.1 mph - N/A   Clear